Orbital Elements
The following orbital elements are taken from MPC 62583:
Epoch 2009 July 28.0 TT = JDT 2455040.5
T 2009 July 18.8611 TT MPC
q 2.174944 (2000.0) P Q
n 0.1519858 Peri. 173.5896 -0.9675286 +0.2517477
a 3.477502 Node 21.0333 -0.2346130 -0.8611625
e 0.374567 Incl. 3.6129 -0.0940488 -0.4416132
P 6.48
From 1102 observations 1994-2008. +0.00 +0.0000.
|